Location: Rowland
(34.5359°N, 79.2929°W)
Time: 16:00:26
(UTC+00:00)

A-11 Canister half - Pass Details

Date: 04 October 2022
Orbit: 1515 x 1684 km, 47.2° (Epoch: 06 December)

Event Time Altitude Azimuth Distance (km) Brightness Sun altitude
Rises 01:03:53 0° 232° (SW) 4,866 12.1 -26.5°
Reaches altitude 10° 01:07:03 10° 232° (SW) 3,860 11.5 -27.1°
Maximum altitude 01:16:55 89° 320° (NW) 1,594 8.9 -29.1°
Enters shadow 01:21:06 40° 53° (NE) 2,178 9.4 -29.9°
